Wind_Speed
3 4 5 7 9 9 10 11 11 10 11 10 9 11 12 12 12 14 14 13 14 13 14 17 17 17 18 18 18 17 17 17 17 18 18 18 18 17 17 16 16 15 15 16 15 14 14 14 14 13 14 14 13 13 12 12 12 12 13 14 14 14 15 15 15 16 17 18 18 18 19 19 19 19 19 19 20 20 20 20 21 22 23 23 24 25
8 7 5 8 10 9 9 10 9 8 9 10 10 12 13 13 13 14 14 14 15 14 14 18 17 17 18 18 18 17 17 17 18 19 18 18 18 17 17 17 17 16 16 16 16 16 16 15 14 13 13 13 13 12 13 13 14 14 14 14 15 15 15 15 16 17 17 18 19 19 19 19 19 19 19 19 20 20 21 21 22 23 25 26 27 27
9 8 6 8 9 9 11 11 10 10 9 9 12 13 12 14 14 14 14 14 16 16 16 17 17 17 18 18 19 18 18 18 18 19 18 18 19 19 19 18 17 17 16 17 17 16 16 14 13 13 13 13 13 13 13 13 13 14 14 13 14 14 16 16 17 18 18 18 18 18 18 18 18 18 18 18 19 20 21 22 24 26 27 28 29 30
6 6 6 7 8 10 14 14 12 12 9 7 11 12 10 12 13 14 16 16 17 17 17 18 17 18 19 19 19 19 18 18 18 18 19 19 20 20 19 19 18 17 16 16 15 15 15 14 13 13 13 13 13 13 13 13 13 14 14 14 14 15 16 16 17 18 18 18 18 18 18 17 18 18 19 19 20 22 23 25 27 28 28 29 30 31
5 5 6 7 10 13 13 12 11 10 10 8 8 9 10 11 12 14 15 16 17 17 17 18 18 17 18 18 18 19 18 17 17 18 18 18 19 19 19 18 17 16 16 15 14 14 14 13 13 13 13 13 13 12 13 13 14 14 15 15 14 15 15 16 17 17 18 18 19 19 19 20 20 20 20 21 21 23 25 26 27 28 28 29 31 32
6 4 5 7 11 15 14 12 11 9 10 9 7 10 12 12 12 12 14 17 17 17 16 16 17 17 17 18 18 18 17 16 16 17 17 16 17 17 17 17 16 15 15 14 13 13 13 13 13 13 13 13 12 12 13 14 14 14 14 14 14 15 15 16 17 17 18 18 19 19 19 19 19 19 19 19 20 21 23 24 26 27 28 30 33 35
3 5 4 6 6 11 13 10 8 6 7 9 10 12 13 13 12 11 12 14 14 15 15 14 16 16 15 17 16 16 16 15 16 16 15 15 16 16 16 15 14 14 13 13 13 12 13 12 12 12 13 12 12 13 13 13 13 13 13 13 14 15 15 16 17 17 18 18 18 19 19 19 19 19 19 20 21 22 23 25 26 28 30 32 34 37
1 8 6 5 3 4 8 8 8 9 9 10 10 9 9 11 12 12 13 12 11 13 14 14 14 13 14 16 16 15 15 15 15 15 15 15 15 15 15 14 13 12 12 12 13 13 13 13 13 13 12 12 12 12 12 12 12 12 13 14 14 15 16 17 17 18 18 19 19 20 21 21 21 21 21 22 24 25 26 27 29 31 33 35 37 40
2 3 4 3 4 4 5 8 11 11 10 12 11 8 6 8 8 9 11 11 12 14 14 13 13 12 12 14 14 14 14 13 14 14 14 14 13 13 13 13 12 12 12 13 13 13 13 13 13 13 12 11 11 11 11 11 12 13 14 14 15 16 17 18 19 19 20 21 22 22 23 23 23 23 23 24 25 26 28 29 31 33 35 38 40 43
4 4 3 1 4 6 5 9 10 9 8 9 10 6 4 6 8 10 11 11 13 13 12 11 12 12 11 11 12 12 12 12 11 11 12 12 11 12 12 12 12 12 12 13 13 13 13 12 12 11 11 11 10 11 11 12 13 14 15 16 17 18 19 20 21 22 23 24 24 25 25 25 25 25 25 26 27 28 30 31 33 35 37 40 42 44
5 4 3 1 3 5 5 9 9 6 6 6 7 6 7 7 4 8 8 9 11 12 11 12 11 11 11 10 9 10 10 9 10 10 11 11 10 11 11 11 11 11 12 12 12 12 12 12 12 11 11 11 11 12 12 13 14 15 16 18 19 20 21 22 24 25 26 26 26 27 27 27 27 28 28 28 29 30 32 33 35 37 39 41 43 46
2 2 2 2 2 3 3 6 6 4 3 1 4 5 4 1 3 5 6 8 10 11 12 12 9 8 9 9 7 8 8 8 9 9 10 10 10 10 10 10 10 11 11 11 11 12 12 12 12 11 11 12 12 13 14 15 16 17 19 20 21 22 23 25 26 26 27 28 28 29 29 29 30 30 30 30 31 32 33 35 37 39 41 42 45 47
4 3 3 3 1 1 2 2 3 3 2 3 4 6 4 5 10 10 10 10 10 10 12 11 9 7 7 7 6 7 8 8 8 8 9 9 9 9 10 10 10 10 10 10 11 11 12 12 12 12 12 13 13 15 16 17 18 19 21 22 23 24 25 26 27 28 28 29 30 31 31 31 31 31 31 32 32 33 35 37 39 41 42 44 46 47
5 6 6 3 2 1 3 5 6 3 5 5 6 7 2 5 10 9 10 11 9 9 10 10 8 6 6 5 6 7 8 7 8 8 8 9 9 10 10 10 10 10 10 10 11 11 11 12 12 13 13 14 15 16 17 18 20 21 22 23 25 26 27 28 29 29 30 30 31 32 32 32 32 32 33 33 34 35 37 39 41 42 43 45 47 48
8 9 4 1 1 3 3 4 6 3 6 5 3 4 5 6 6 8 10 9 7 6 7 10 9 8 7 6 6 6 7 7 7 7 8 10 11 12 11 11 10 10 10 10 10 11 11 12 13 14 15 16 17 17 18 20 21 22 24 25 26 27 28 29 30 30 31 31 32 32 32 32 33 33 33 34 35 36 38 40 42 43 45 46 48 49
6 3 5 5 2 5 3 5 7 4 3 1 0 1 7 7 4 7 10 8 7 5 5 8 8 8 9 7 6 5 6 7 7 7 8 11 12 12 12 12 11 10 10 10 11 11 12 12 13 14 16 16 18 19 20 21 22 23 24 26 27 28 29 30 30 31 31 32 32 32 32 33 33 33 34 34 36 38 39 41 42 44 46 48 49 51
5 5 8 6 3 7 6 5 5 4 4 2 0 1 5 6 3 4 6 5 6 6 5 5 5 6 7 5 4 5 4 5 7 7 8 10 10 11 12 12 12 11 11 11 11 11 12 13 13 14 15 16 18 19 20 22 23 24 25 27 28 29 30 31 31 31 31 32 32 32 33 33 33 34 34 35 37 39 40 42 43 45 47 49 50 52
6 9 8 4 3 7 7 7 6 3 4 3 2 3 5 4 2 2 3 3 5 7 6 7 7 4 4 4 3 3 3 4 5 6 6 7 8 10 11 11 12 11 11 10 11 11 12 12 13 14 15 16 18 19 21 22 23 25 26 27 27 28 29 30 30 30 31 32 32 32 33 33 34 34 35 36 38 40 41 42 44 46 48 50 51 54
9 9 5 2 3 7 7 6 6 4 2 3 4 4 1 1 2 2 2 2 2 5 6 7 8 6 5 6 3 1 1 2 4 3 4 5 7 8 9 10 10 11 11 10 10 10 11 12 13 14 15 16 18 19 21 22 23 25 26 27 27 27 28 28 29 30 31 32 33 33 34 34 34 35 35 37 39 40 42 43 45 47 49 51 52 55
9 10 5 4 5 6 5 3 3 5 4 2 3 4 3 4 2 1 0 0 1 5 7 6 8 9 8 7 5 2 1 1 2 1 3 4 6 8 9 9 9 10 10 10 9 9 10 12 13 14 14 16 18 20 21 22 23 25 26 27 28 28 28 28 29 30 31 33 33 33 34 34 35 35 36 38 39 40 42 43 45 48 50 51 53 56
12 11 7 7 7 4 3 3 4 4 5 1 2 2 3 5 5 1 1 2 1 1 5 7 8 9 8 7 5 3 2 1 1 2 3 5 6 7 8 9 9 9 9 9 9 9 10 12 13 14 15 16 18 20 22 23 24 25 26 28 28 28 28 28 29 31 32 33 33 33 34 34 35 36 37 38 39 41 42 44 46 48 50 52 54 57
14 12 10 9 9 6 3 6 6 5 5 3 1 2 5 6 6 5 4 4 2 1 2 6 9 10 10 8 5 4 4 3 3 3 4 5 7 7 8 9 9 9 9 9 9 9 10 12 13 14 15 17 18 20 22 24 25 26 27 28 28 28 28 29 30 31 32 33 33 33 34 35 35 36 36 38 39 41 43 44 47 49 51 52 54 58
12 11 12 10 9 9 11 10 11 8 7 6 2 4 6 6 6 7 6 5 4 2 2 7 10 10 9 9 7 6 4 3 3 3 5 6 7 8 8 9 9 9 9 9 9 9 10 11 13 13 14 17 19 21 23 24 26 27 28 28 27 27 28 29 30 31 32 33 33 34 35 35 35 35 37 38 40 42 43 45 47 49 52 53 55 59
11 12 13 12 11 11 12 10 9 8 7 6 5 6 6 5 7 9 7 6 5 3 3 7 9 9 9 8 9 8 5 4 3 3 5 6 7 9 10 9 9 9 9 9 8 8 9 11 12 13 15 16 19 21 22 24 26 27 28 28 27 27 28 29 30 31 32 33 33 34 35 34 35 36 37 38 40 42 44 45 47 50 52 54 56 60
12 14 14 13 13 12 11 10 7 8 9 8 7 6 5 5 8 10 8 7 8 7 6 8 9 10 10 8 8 8 6 5 5 5 5 6 7 9 10 10 9 9 8 8 8 7 8 10 12 13 15 17 18 20 22 24 25 26 27 27 27 28 28 29 30 31 32 33 33 34 34 34 35 36 37 39 41 42 44 46 48 50 53 54 57 60
13 13 13 14 14 12 12 11 9 10 10 10 9 7 6 7 10 10 10 10 10 9 8 9 10 10 11 11 10 9 7 6 6 5 6 7 8 9 10 10 10 9 8 8 7 7 8 10 12 13 15 17 19 21 23 24 25 26 26 26 27 28 29 30 31 31 32 32 33 33 33 34 35 36 37 39 41 43 45 47 48 51 53 55 57 61
13 12 13 15 14 12 11 11 11 9 7 8 9 8 7 10 12 11 11 12 12 10 10 10 10 10 11 13 11 10 10 9 7 7 7 8 9 10 10 10 9 8 8 7 6 7 8 10 12 14 15 17 19 21 24 25 26 26 27 27 27 28 29 30 31 31 32 32 32 33 33 35 36 37 38 39 41 43 45 47 49 51 53 55 57 61
14 14 15 14 14 13 11 10 11 9 6 7 10 9 8 10 12 11 12 14 13 11 10 8 8 10 11 12 11 11 12 11 9 8 9 9 9 10 10 9 8 8 8 7 6 7 9 10 12 14 16 18 20 22 24 25 26 26 27 27 28 28 29 30 30 31 31 32 32 33 34 35 36 37 38 39 41 44 46 48 49 51 53 55 57 61
15 16 16 13 13 14 10 7 9 9 8 8 9 10 9 10 11 11 13 15 14 13 13 10 8 11 11 10 11 12 12 11 11 10 10 10 9 9 10 8 7 8 7 6 6 7 8 10 11 13 16 18 20 22 23 24 25 26 27 27 28 29 29 30 30 30 31 32 32 33 34 35 36 37 38 39 41 44 46 48 49 51 53 55 57 60
15 16 14 12 12 12 9 7 8 9 8 8 8 9 10 10 11 12 14 16 15 14 15 14 12 14 13 11 12 13 11 11 12 12 12 10 8 8 9 7 6 7 6 5 6 7 8 10 12 14 16 18 20 21 23 24 25 26 27 27 28 28 29 29 30 30 31 32 33 34 35 35 36 37 38 39 41 44 47 48 49 51 53 55 57 60
15 13 11 11 10 9 8 7 8 9 9 9 8 9 10 11 12 13 14 15 15 15 15 15 15 15 15 15 13 12 12 13 13 13 14 11 8 8 8 6 6 6 5 5 6 7 8 10 12 14 16 18 20 21 23 25 26 26 27 27 28 28 29 29 30 31 32 32 33 34 35 35 36 37 38 39 41 44 46 48 49 51 53 55 56 59
14 13 11 10 9 8 9 9 10 11 11 10 11 11 11 12 13 14 13 13 14 15 15 15 15 14 14 15 15 14 13 13 13 13 13 11 8 8 7 6 6 5 5 5 6 7 8 10 12 14 15 17 19 21 23 24 26 26 27 27 28 28 29 29 30 31 32 33 33 34 34 35 36 37 38 39 41 43 46 48 49 50 52 54 55 57
13 13 11 11 10 10 11 12 12 13 12 12 12 12 12 13 13 13 13 12 13 15 16 15 15 14 14 14 15 15 15 14 12 12 12 9 8 7 6 5 5 5 5 5 5 7 9 10 12 14 15 17 19 21 23 24 25 26 27 27 28 28 29 30 31 32 32 33 33 34 34 35 36 37 38 40 41 43 45 47 49 50 51 53 54 56
13 12 12 12 11 11 13 13 12 13 13 12 12 12 12 13 12 11 12 13 13 14 16 16 14 15 15 15 16 15 15 14 12 11 9 8 7 7 6 5 5 5 5 5 6 7 9 11 12 14 15 17 19 21 23 24 25 26 27 27 28 29 29 30 31 32 33 33 33 34 35 35 36 37 38 40 41 42 44 46 48 49 50 51 53 55
14 12 13 13 12 13 12 10 11 13 13 12 12 12 12 12 11 11 12 13 13 13 15 16 15 15 16 16 16 15 14 13 12 11 9 7 7 7 6 5 5 5 4 5 6 8 9 11 12 14 16 17 19 21 23 24 25 26 26 27 28 29 30 30 32 32 33 33 33 34 35 36 36 37 38 39 41 42 43 45 47 48 48 50 52 53
15 14 15 14 14 15 14 10 10 13 12 11 11 12 11 10 11 11 12 14 13 13 14 15 15 15 16 16 15 15 14 13 12 11 10 8 7 7 7 6 5 5 4 5 7 9 10 11 13 14 16 17 19 21 22 23 24 25 26 27 28 29 30 31 32 33 33 33 34 34 35 36 36 37 38 39 40 41 42 43 45 46 47 49 51 52
15 15 15 15 15 15 15 13 12 13 13 12 12 12 12 12 12 12 13 14 13 13 14 14 14 15 15 15 14 13 13 12 11 11 10 8 7 7 7 6 6 5 5 6 8 10 11 12 13 15 16 17 19 20 22 23 24 25 26 27 28 29 30 31 32 33 33 34 34 34 35 36 36 37 38 38 39 40 41 42 44 45 46 47 49 51
17 16 16 16 16 16 16 15 15 15 15 13 11 12 12 12 12 12 14 14 13 13 15 14 14 15 14 13 13 12 12 11 10 10 10 8 8 7 7 7 6 5 6 7 9 10 11 13 14 15 17 18 19 21 22 23 24 25 27 28 29 30 31 32 32 33 34 34 34 34 35 36 36 37 38 38 39 40 41 42 43 44 45 46 47 49
20 18 17 17 16 16 16 16 16 16 17 14 11 12 13 13 12 13 14 14 12 13 15 14 13 14 13 12 12 12 12 11 9 9 10 8 8 8 8 7 6 6 7 8 10 11 12 13 15 16 17 18 20 21 22 23 24 25 27 28 29 30 31 32 33 33 34 34 34 35 35 36 36 37 38 38 39 40 41 42 43 44 45 45 46 47
23 21 20 18 17 17 17 17 17 18 18 16 13 14 14 14 13 14 15 14 12 13 14 13 12 12 12 12 12 12 11 9 7 9 10 9 8 9 9 8 7 7 8 9 10 12 13 14 15 16 17 19 20 21 22 23 24 26 27 28 29 30 31 32 33 33 34 34 34 35 35 36 36 37 38 38 39 40 41 42 43 44 45 46 46 46
25 24 21 19 18 17 18 18 17 19 20 17 14 15 15 15 16 16 15 14 14 14 14 12 12 12 12 13 12 11 10 9 9 10 10 9 9 9 9 8 9 9 9 10 11 12 14 15 16 17 18 19 20 21 23 24 25 26 27 28 29 30 31 32 33 33 34 34 35 35 35 36 37 37 38 38 39 39 40 41 42 43 45 46 46 46
25 25 23 21 19 18 19 19 18 20 22 18 15 15 16 16 18 16 14 15 16 15 13 12 12 11 12 13 11 10 11 11 11 10 10 10 10 10 10 10 10 10 11 11 12 14 15 16 16 17 18 19 20 21 23 24 25 26 27 28 29 30 31 32 32 33 34 34 34 35 35 36 36 37 37 38 39 39 40 41 41 42 44 45 45 45
25 24 22 21 21 20 20 19 19 21 22 19 17 17 17 18 17 16 15 15 16 15 13 12 12 12 12 12 12 12 13 12 12 12 11 11 11 11 11 12 12 12 12 12 13 15 16 16 17 17 18 19 20 22 23 25 26 26 27 29 29 30 31 31 32 33 34 34 34 34 35 36 36 37 37 38 38 39 39 40 40 41 43 44 44 44
25 24 23 23 22 20 20 21 22 23 21 19 19 19 19 19 18 17 17 15 15 15 14 13 13 13 13 13 13 14 14 13 13 13 12 12 13 13 13 13 13 13 14 14 15 16 17 17 17 17 18 19 21 23 24 25 26 27 28 29 30 30 31 31 32 33 34 34 34 34 35 36 36 37 37 38 38 39 39 39 40 40 41 42 43 43
24 22 22 22 21 21 22 23 23 20 18 18 20 19 19 20 19 19 18 16 15 15 15 14 14 14 14 14 15 15 15 15 15 14 14 14 14 14 15 15 15 15 15 16 17 17 17 18 18 18 19 20 22 23 25 26 27 28 28 29 30 31 31 32 32 33 34 34 35 35 35 36 36 37 38 38 38 38 38 39 39 39 40 41 41 41
25 23 21 22 22 22 23 23 23 21 20 20 20 20 19 21 21 19 17 16 16 16 16 15 15 15 15 16 16 16 16 16 16 15 15 15 15 16 16 16 17 17 17 18 18 18 18 18 18 19 20 21 23 24 25 27 28 29 29 30 31 31 32 32 32 33 33 34 34 35 35 35 36 37 37 37 38 38 38 39 39 39 39 40 40 40
26 23 21 23 24 23 22 24 25 25 24 23 22 21 21 21 22 20 18 17 17 17 17 16 16 17 16 16 17 17 17 17 17 16 16 16 16 17 17 18 18 19 19 20 20 19 19 19 19 20 21 22 24 25 26 28 29 30 30 31 31 32 32 32 33 33 34 34 34 34 35 35 36 36 37 37 37 37 38 38 38 38 38 39 40 40
25 22 22 26 27 24 24 27 27 25 26 26 25 24 23 23 23 23 21 19 19 19 18 18 18 18 17 17 18 18 18 18 18 18 18 18 18 18 18 19 20 21 21 21 21 20 20 20 21 22 23 24 25 27 28 29 30 31 31 32 32 32 32 32 33 33 34 34 34 34 35 35 35 36 36 37 37 37 38 38 38 38 38 38 39 39
26 22 23 27 27 25 28 31 30 27 28 28 26 25 25 23 23 23 23 22 21 21 20 19 20 19 19 18 19 19 19 19 19 19 19 19 19 20 20 21 22 22 22 22 22 22 21 21 22 24 25 26 27 28 29 30 31 31 32 32 32 32 32 32 32 33 33 34 34 34 34 35 35 36 36 36 37 37 38 38 38 38 38 38 39 39
27 25 24 25 25 26 29 32 31 29 28 27 26 25 24 22 21 22 22 22 22 22 21 21 21 21 20 20 20 20 20 20 21 21 21 21 22 22 23 23 23 23 23 23 23 23 23 23 24 25 27 28 29 30 31 32 32 32 33 33 32 32 32 32 32 32 32 33 33 34 34 35 35 36 36 36 37 38 38 38 38 38 39 39 39 38
28 26 24 23 25 27 28 28 28 28 27 27 27 26 26 24 22 22 22 23 23 23 23 23 23 23 22 22 22 22 22 22 23 23 23 23 24 24 24 25 24 24 24 24 24 24 24 25 26 27 28 30 31 32 33 33 33 33 33 33 33 32 32 32 32 32 32 32 33 33 34 34 35 36 36 36 37 37 38 38 38 38 38 39 39 38
Wind_Direction
87 57 53 82 102 100 95 97 89 76 84 92 88 87 87 84 84 85 82 78 75 75 77 75 70 68 70 70 69 67 66 65 67 69 68 68 68 69 69 67 69 73 74 73 72 71 69 67 65 64 65 61 57 59 54 49 51 50 49 43 35 31 28 24 20 16 15 15 13 10 7 6 5 4 5 5 4 3 2 0 358 357 355 353 350 349
86 81 66 77 77 76 81 89 91 86 88 91 87 86 85 79 76 85 85 74 72 76 77 77 74 71 71 74 73 69 68 66 65 67 68 68 68 68 70 67 66 67 67 68 69 68 64 65 66 63 63 60 56 55 52 50 48 46 46 39 30 26 22 17 13 11 11 9 7 6 5 5 5 6 8 6 4 3 1 359 357 354 352 349 348 347
85 98 83 70 64 69 79 81 89 103 108 97 90 86 81 81 78 83 85 76 75 76 74 76 77 78 76 76 74 70 69 69 68 68 68 69 69 68 68 67 67 66 64 63 65 66 63 64 65 61 58 55 52 49 49 48 41 37 38 32 23 19 17 12 8 7 6 5 4 5 6 7 7 8 8 5 4 2 359 357 355 352 351 349 348 347
60 95 75 65 76 81 83 88 93 99 106 97 93 90 80 79 78 83 87 82 81 80 77 77 74 77 78 74 73 73 72 70 68 69 69 69 69 68 68 66 66 66 64 63 62 61 61 61 60 58 55 51 45 42 43 43 36 29 26 22 18 15 13 8 5 3 1 2 3 4 5 6 5 4 3 2 1 360 357 355 353 351 349 348 347 345
24 69 58 60 86 89 86 94 98 99 103 92 85 88 81 78 78 81 81 77 81 81 78 78 76 76 77 74 73 73 71 68 66 66 66 69 71 71 70 68 64 62 61 60 58 55 55 54 51 49 47 43 38 33 33 32 27 22 18 17 14 11 7 3 2 0 360 1 1 1 1 1 1 0 360 359 358 357 355 352 350 349 347 345 343 342
30 53 60 67 79 88 95 97 89 88 97 94 87 87 83 80 78 74 71 70 75 74 71 76 78 76 76 75 74 73 70 67 65 66 65 65 68 69 69 68 62 55 51 49 49 48 45 44 40 36 34 32 28 24 24 23 20 17 14 12 9 5 1 360 359 359 359 359 358 359 359 358 358 357 356 356 354 354 352 350 348 346 345 344 342 341
355 327 21 67 70 89 98 95 89 86 89 95 94 91 87 81 73 66 71 74 72 70 73 77 75 73 75 75 73 71 69 66 65 64 63 59 59 60 59 59 55 49 44 39 39 36 33 33 31 28 26 22 20 20 19 17 13 10 7 6 4 1 360 359 359 359 358 357 356 356 356 356 355 354 353 352 351 351 350 349 347 345 343 342 340 339
271 308 330 29 8 75 86 78 93 106 95 88 85 84 84 76 68 63 63 67 70 75 76 74 70 69 74 74 71 69 64 63 65 63 61 56 52 51 49 47 44 39 34 32 31 28 23 24 23 21 20 16 16 15 13 9 6 4 4 4 1 359 359 359 359 358 357 356 355 354 354 354 353 352 352 351 350 349 348 347 345 342 340 338 337 335
206 264 293 349 358 19 78 88 92 99 92 86 83 77 75 74 69 64 64 67 76 82 77 71 72 73 74 74 70 68 62 57 61 63 62 58 50 47 44 40 37 32 29 28 27 24 19 18 18 16 14 12 11 8 7 5 3 4 4 2 0 360 0 0 359 357 356 355 355 354 353 352 352 351 350 348 347 346 344 343 340 338 337 335 333 332
238 209 243 236 47 43 112 123 104 95 90 93 95 93 123 124 86 61 68 78 78 80 79 69 68 67 66 68 66 66 64 58 57 62 63 59 52 46 42 39 38 33 31 29 25 22 18 17 15 12 10 8 8 6 5 5 4 3 2 1 1 1 1 359 357 356 355 355 354 353 352 350 350 349 347 346 344 342 341 339 337 335 333 332 330 329
207 207 255 239 57 46 113 115 95 85 80 97 130 157 181 173 113 62 70 85 81 75 71 61 57 61 59 58 63 66 68 66 61 60 60 58 54 49 46 43 40 36 35 32 27 22 19 18 15 11 10 7 6 5 4 5 4 2 1 1 1 1 359 357 356 356 354 353 352 351 350 349 348 347 345 343 341 340 338 336 334 332 331 330 329 328
212 152 262 262 29 29 82 81 57 51 52 123 193 204 215 188 76 71 57 69 86 74 62 61 57 62 65 62 68 72 75 77 69 62 58 54 51 48 46 45 41 39 37 33 29 25 21 19 15 11 10 7 5 4 3 2 1 1 0 360 359 358 357 356 356 355 352 351 350 350 349 348 347 345 342 340 338 336 335 333 332 330 330 330 329 328
124 132 245 262 347 22 83 79 332 343 321 302 325 309 301 53 59 63 49 49 77 71 55 60 57 51 62 68 73 73 72 73 69 67 61 53 48 43 40 39 37 37 35 31 30 27 23 19 15 11 9 8 6 4 2 1 359 359 358 357 357 356 355 354 353 352 351 350 349 349 348 347 345 343 340 338 336 335 333 332 331 331 331 330 330 329
191 262 284 345 24 207 147 186 223 245 262 285 347 337 323 61 42 50 59 51 64 73 55 46 39 36 46 64 75 74 72 67 63 61 58 54 49 44 40 37 34 31 29 30 30 27 23 18 13 10 9 8 7 3 1 358 357 356 355 354 354 353 353 352 351 350 349 348 348 348 347 346 344 342 339 337 336 334 333 332 332 332 331 332 331 330
231 276 277 9 68 158 141 229 243 245 255 272 346 22 74 68 37 56 63 44 44 75 57 32 20 19 27 45 63 75 83 75 66 58 53 52 46 40 38 34 30 28 25 25 26 24 20 16 12 8 8 6 5 2 358 356 355 354 352 351 351 351 350 350 348 348 347 347 347 347 346 345 343 341 339 337 335 334 334 333 333 333 333 333 333 332
217 249 245 250 193 153 155 266 279 296 288 298 296 102 71 58 47 60 52 39 36 41 34 25 16 9 13 26 35 52 76 73 65 58 51 49 43 37 34 31 28 26 22 19 18 18 15 13 11 9 8 5 2 359 356 354 353 351 350 349 350 349 347 347 346 345 346 346 346 347 346 345 343 341 338 336 335 335 335 335 335 335 335 335 334 334
167 175 239 255 200 189 186 197 222 269 292 326 344 142 78 51 19 43 50 44 25 18 20 19 17 6 2 12 23 32 53 63 59 49 43 42 37 35 32 29 27 22 17 14 11 12 10 8 9 8 8 5 0 356 353 352 349 348 349 349 349 347 345 344 344 344 346 346 347 347 346 344 342 340 338 337 337 337 337 337 337 337 337 337 336 336
188 193 234 261 236 230 206 193 220 266 300 305 359 94 113 91 37 14 53 65 20 11 6 351 355 3 4 14 32 36 33 60 65 46 33 29 24 28 27 24 24 19 14 11 8 7 4 3 6 7 7 3 358 354 351 350 347 346 348 348 346 345 343 342 342 344 345 346 347 347 345 344 342 340 339 339 339 339 339 339 339 339 339 338 338 338
213 207 236 238 226 244 221 212 246 276 308 314 356 25 38 356 10 336 352 81 50 0 349 341 342 346 359 7 8 23 8 51 69 38 12 12 9 15 17 14 15 13 10 6 2 3 359 359 4 5 5 0 354 352 350 348 346 346 346 345 344 343 341 341 342 344 346 347 347 346 345 344 342 341 341 341 341 340 340 340 340 340 340 340 339 340
227 214 222 183 184 243 240 209 238 266 274 292 2 2 324 315 337 132 207 216 68 354 336 328 336 344 353 352 340 329 336 46 73 9 341 352 354 358 2 3 2 2 4 360 354 357 357 357 0 1 1 357 352 350 348 346 347 346 344 343 342 342 341 342 344 346 347 347 346 346 345 344 342 342 343 342 341 341 341 341 341 342 341 341 341 342
242 228 230 201 177 187 228 223 208 236 258 215 69 336 281 282 295 331 286 258 178 351 312 307 323 334 333 329 324 311 301 312 286 292 320 332 339 347 348 349 349 348 353 354 348 351 356 357 357 357 357 355 351 348 346 346 347 346 344 342 341 340 341 344 347 348 348 347 346 346 345 343 344 344 343 343 342 342 342 342 343 343 343 343 342 344
234 228 223 203 182 163 175 244 233 210 248 259 114 295 282 266 271 282 275 265 258 227 294 309 314 314 312 315 312 288 288 297 285 291 311 318 325 333 335 337 338 336 341 346 345 349 356 355 353 353 352 351 351 349 346 346 346 345 344 342 340 340 343 347 349 348 347 347 346 345 344 344 345 344 343 342 342 343 344 344 344 344 344 344 344 346
225 221 217 202 188 172 167 210 234 221 243 267 229 243 273 275 272 271 258 267 293 317 328 312 305 301 303 310 307 292 288 281 270 292 301 305 315 320 325 328 328 328 332 337 341 347 353 351 348 350 350 350 349 348 347 346 346 345 343 341 341 342 346 348 348 347 347 346 345 344 345 345 344 343 343 343 344 345 345 345 346 346 346 346 346 348
221 211 214 210 204 194 179 196 233 234 237 252 246 246 256 264 278 280 273 275 274 246 253 280 290 296 298 303 300 290 286 280 277 290 293 300 313 312 316 322 321 321 323 328 335 343 349 348 345 347 349 351 349 346 346 346 345 344 341 340 342 345 348 349 348 347 346 345 345 345 345 344 343 343 344 344 345 346 346 346 347 348 348 348 348 350
223 211 216 218 209 212 209 200 206 222 225 221 226 250 253 240 261 275 280 281 274 267 268 274 289 301 299 297 290 279 278 286 286 290 293 302 309 305 307 314 315 314 315 320 329 338 346 346 345 346 347 349 349 346 346 347 345 342 341 341 344 347 349 349 347 346 345 345 346 345 344 343 343 344 345 345 346 347 347 348 349 350 350 349 350 351
224 215 226 228 216 215 218 209 200 209 220 216 212 231 247 240 251 267 271 269 273 280 282 281 291 299 296 295 290 281 281 280 277 286 292 297 302 301 303 307 308 307 307 314 324 335 345 346 345 346 346 348 349 347 347 347 345 343 343 344 346 348 349 349 347 345 345 346 346 344 343 343 344 345 345 346 347 347 349 350 351 351 351 351 352 353
226 219 230 231 224 218 213 219 224 214 213 223 221 223 233 240 249 261 266 267 273 281 285 286 289 292 293 294 291 286 287 282 273 280 287 290 299 302 302 304 303 300 302 310 322 335 344 345 344 345 347 349 350 348 348 347 345 345 345 346 348 349 349 348 346 345 345 346 344 343 343 344 345 345 345 347 348 349 351 352 352 353 353 353 354 355
228 229 234 231 229 224 208 215 236 233 219 225 232 237 238 243 250 255 261 266 270 278 284 285 286 290 294 296 292 286 284 283 283 288 292 295 300 302 301 302 298 295 301 309 320 334 341 345 346 346 349 351 350 349 348 347 346 347 346 348 349 350 349 346 344 344 345 345 344 344 345 345 345 346 346 348 350 351 352 353 353 354 354 354 355 356
225 232 235 237 239 234 214 204 227 235 233 231 242 258 256 252 252 250 257 265 269 275 278 278 283 287 288 287 283 277 275 282 290 292 294 298 303 300 296 294 292 293 299 308 319 332 340 344 347 348 350 351 350 349 348 348 348 348 348 349 350 349 347 345 344 345 346 345 344 345 346 346 345 346 347 349 351 352 353 354 354 355 355 356 357 357
223 228 232 240 244 237 224 212 215 219 225 231 245 259 262 263 260 252 254 262 268 272 274 277 281 284 283 277 270 271 279 290 296 295 295 299 301 292 286 284 285 290 296 306 319 331 339 344 347 350 351 350 349 348 349 350 350 350 350 351 350 348 346 344 345 346 346 345 346 347 347 346 346 346 348 350 352 353 354 354 355 355 356 357 358 359
226 230 229 237 237 229 225 222 217 215 221 233 243 251 259 265 264 259 256 260 266 269 270 273 275 278 284 284 281 286 295 298 299 297 295 298 297 283 277 277 279 284 293 306 319 331 339 344 347 349 350 349 348 349 351 352 352 352 351 351 349 347 345 345 347 347 346 346 347 348 347 346 346 346 348 350 352 354 355 355 355 356 357 358 358 360
223 229 225 225 225 226 226 219 216 219 222 230 236 243 253 259 262 262 259 256 261 267 268 270 273 278 286 289 293 298 299 297 297 294 291 293 291 279 273 275 277 282 295 307 320 330 338 344 346 347 348 347 348 351 353 353 353 352 351 350 349 347 346 347 348 348 347 348 348 348 347 346 346 346 348 350 352 354 355 355 356 357 358 358 359 1
225 227 224 218 215 221 222 215 217 222 224 230 237 241 248 256 260 264 262 256 258 267 271 273 279 284 286 290 295 296 295 296 295 291 288 286 279 273 272 271 273 281 295 307 321 330 336 342 344 345 346 347 350 353 354 354 353 352 352 350 349 348 348 349 349 348 348 349 349 348 348 347 346 347 348 350 352 354 355 356 357 358 358 359 359 1
229 230 229 222 219 227 226 217 219 228 230 235 243 248 249 253 257 260 264 262 260 266 274 278 283 287 291 295 297 294 294 296 293 286 281 274 267 270 270 262 265 280 295 306 319 329 335 339 342 343 345 348 351 353 354 354 353 352 352 350 348 349 350 350 350 349 349 349 349 349 348 348 347 347 349 350 352 354 355 356 357 358 358 359 360 2
228 227 228 221 222 235 238 227 224 233 238 240 249 255 252 250 253 257 265 268 265 268 275 279 284 289 292 296 296 296 297 296 289 282 276 267 261 262 259 256 265 279 291 304 317 327 333 337 339 341 344 347 350 352 353 353 352 352 351 349 349 350 351 351 350 350 350 349 349 349 349 348 348 348 349 350 351 354 355 357 357 358 358 359 0 2
229 230 228 222 222 233 243 239 230 237 245 247 252 258 256 253 254 258 264 268 269 272 275 280 285 289 291 294 295 295 295 292 287 282 277 269 259 255 255 258 265 275 288 304 317 326 332 334 337 339 342 345 348 350 351 351 350 351 350 349 350 351 351 351 351 350 350 349 349 349 349 349 349 349 349 350 351 353 355 356 357 358 358 359 1 3
231 233 230 227 226 232 241 242 238 243 249 249 253 260 262 260 260 261 264 266 270 275 278 281 285 287 288 289 289 287 286 287 283 276 271 266 258 253 253 257 262 274 290 306 318 325 330 331 333 337 339 342 345 346 347 347 349 350 350 349 350 351 351 351 350 350 349 349 349 349 349 349 349 349 349 350 351 352 354 355 356 358 359 359 1 3
237 235 231 229 229 233 240 242 242 247 250 249 254 262 263 261 262 264 266 267 271 276 277 280 283 283 282 281 281 280 279 277 272 265 260 258 254 252 253 256 261 275 292 309 319 323 326 328 330 333 336 339 341 342 343 344 346 348 349 349 350 350 351 350 350 349 349 348 349 349 349 349 349 349 350 350 351 351 352 354 355 357 359 360 1 3
237 236 233 231 231 233 239 242 243 248 250 249 250 254 257 261 265 266 265 267 270 272 274 278 278 276 275 273 272 272 271 270 266 259 255 251 249 249 251 257 265 278 296 309 316 320 323 325 327 330 334 337 338 338 339 341 344 346 347 347 348 349 350 349 349 348 348 348 348 349 349 349 349 349 350 350 350 350 351 353 354 356 358 359 0 3
233 234 235 234 231 232 238 242 245 249 250 250 251 252 254 261 265 263 264 268 270 271 274 276 272 268 267 267 266 266 267 265 252 249 253 251 247 247 249 256 268 281 296 306 312 317 320 321 324 328 331 334 335 335 337 338 341 344 344 345 347 348 348 348 348 347 347 347 347 348 349 349 349 349 350 350 349 350 350 352 354 355 357 358 360 2
234 237 236 235 232 231 235 238 243 249 250 249 252 254 256 260 260 261 266 271 271 270 271 269 265 262 261 262 264 262 257 249 238 242 251 250 246 248 252 258 269 281 294 303 308 313 315 318 321 325 328 331 333 333 335 337 339 341 342 343 345 346 347 347 346 346 346 346 347 348 348 348 349 349 349 350 349 349 350 352 353 354 355 357 359 1
238 238 236 237 235 233 235 236 240 248 251 250 249 251 254 255 257 261 267 268 268 268 266 262 260 258 258 259 259 253 249 249 248 248 250 248 246 248 252 259 270 281 292 300 305 308 312 315 318 322 326 329 331 332 334 335 337 339 340 341 342 344 345 345 345 344 344 344 346 347 347 348 348 348 349 349 349 349 350 351 353 354 355 356 358 359
239 236 235 239 237 234 237 239 239 243 248 250 250 250 251 253 258 264 264 264 268 270 264 258 256 255 256 256 252 248 248 251 253 252 249 247 247 248 253 261 271 281 289 296 301 305 308 311 314 319 323 326 329 331 332 334 335 337 338 339 340 341 342 343 343 342 342 342 344 346 347 347 347 348 348 349 349 349 350 351 352 353 354 355 357 358
241 237 234 238 238 234 236 240 240 242 246 251 252 251 251 252 255 259 260 262 268 269 262 257 255 254 254 251 247 247 249 249 250 253 251 249 249 250 256 264 272 280 288 294 299 302 305 308 311 316 320 324 327 329 331 333 334 335 337 337 338 338 339 340 341 341 340 341 342 344 345 346 347 347 347 348 348 349 349 350 351 352 353 354 356 356
241 236 232 236 238 235 237 242 246 248 250 252 252 251 251 252 253 256 260 261 262 263 260 256 255 254 253 251 249 248 249 248 249 251 251 251 252 255 261 268 275 282 289 293 297 300 303 305 309 312 317 321 324 327 330 331 332 333 334 335 335 335 336 337 338 339 339 340 340 342 344 345 346 346 347 347 347 348 348 349 350 351 352 353 354 355
241 236 233 238 239 237 240 246 250 249 247 247 250 253 254 254 253 253 255 254 253 255 255 253 254 254 253 253 253 251 251 251 251 251 252 254 257 261 267 273 279 284 289 293 296 298 300 302 305 308 313 318 322 325 328 329 330 331 331 332 333 333 333 334 336 337 338 338 339 340 342 343 344 345 346 346 346 347 347 348 349 349 350 351 353 354
244 238 231 235 240 240 243 246 246 247 248 248 251 255 256 253 251 249 249 248 246 247 248 248 251 254 254 254 255 254 253 253 253 253 254 256 260 264 270 276 281 285 290 292 294 296 297 299 301 305 310 315 319 323 326 327 327 328 328 330 331 331 332 333 334 335 336 337 338 339 340 341 343 343 344 345 345 346 347 347 347 348 349 350 351 352
245 238 229 232 237 240 244 247 246 247 250 249 249 250 250 249 247 246 246 244 242 242 244 246 249 252 255 255 255 255 255 255 255 256 257 259 262 266 271 276 281 286 289 291 293 294 295 296 299 303 308 313 317 321 323 324 325 325 326 327 329 329 330 331 332 333 335 335 337 337 338 340 341 342 342 343 344 345 346 346 346 347 348 348 349 350
240 237 232 234 236 238 243 247 247 247 249 251 252 253 254 253 253 253 251 248 245 243 242 244 248 251 253 254 255 256 256 257 258 259 260 262 265 268 272 277 281 285 288 290 291 292 293 295 298 302 306 311 315 319 321 322 323 323 324 326 327 328 329 329 330 332 333 334 335 336 336 338 339 340 341 341 343 344 345 345 345 345 346 347 348 350
237 237 236 237 239 240 244 249 252 253 254 257 259 261 262 261 261 262 261 259 256 252 249 247 249 251 252 253 254 256 257 258 259 260 262 264 267 270 274 277 281 284 287 288 289 290 292 294 297 301 305 310 314 317 319 320 321 322 323 325 326 327 327 327 328 330 332 333 334 334 334 335 336 338 339 340 341 343 343 344 344 344 345 346 347 349
240 242 244 244 244 246 250 255 259 260 260 259 259 261 261 260 259 259 259 259 258 257 255 253 252 252 252 253 254 256 257 259 260 261 263 266 268 271 274 277 280 283 285 287 288 289 291 294 297 301 305 309 313 316 318 319 320 321 322 324 325 325 326 326 326 328 330 332 332 332 333 333 334 335 336 338 340 341 342 342 343 343 344 345 346 348
Height
5832 5833 5834 5835 5834 5833 5833 5831 5830 5832 5834 5834 5834 5834 5834 5833 5833 5832 5832 5831 5831 5832 5831 5830 5830 5830 5829 5830 5829 5829 5828 5827 5827 5827 5827 5826 5825 5825 5825 5825 5825 5826 5825 5824 5824 5824 5824 5824 5824 5823 5823 5822 5822 5822 5822 5821 5821 5821 5820 5818 5818 5817 5816 5814 5814 5813 5812 5810 5809 5808 5806 5805 5804 5802 5801 5799 5798 5796 5794 5792 5791 5789 5787 5785 5784 5782
5833 5834 5834 5834 5833 5832 5832 5831 5831 5833 5835 5835 5835 5836 5836 5835 5835 5834 5833 5833 5833 5833 5832 5831 5832 5832 5831 5831 5830 5830 5829 5829 5828 5828 5828 5827 5827 5827 5827 5828 5828 5828 5827 5827 5827 5828 5827 5826 5825 5824 5824 5823 5822 5823 5823 5822 5821 5821 5820 5819 5818 5817 5816 5815 5814 5813 5812 5810 5809 5808 5807 5805 5804 5803 5801 5799 5798 5796 5794 5792 5790 5788 5786 5784 5782 5780
5835 5836 5835 5834 5834 5834 5833 5833 5834 5835 5836 5836 5837 5837 5837 5836 5836 5836 5835 5835 5834 5834 5833 5833 5833 5833 5833 5832 5831 5831 5831 5831 5830 5830 5830 5829 5829 5829 5829 5830 5830 5829 5828 5829 5830 5830 5829 5828 5827 5826 5825 5824 5824 5824 5824 5823 5822 5821 5821 5820 5819 5818 5816 5815 5814 5813 5812 5811 5810 5809 5808 5806 5805 5803 5801 5800 5798 5796 5794 5792 5789 5787 5785 5782 5780 5778
5836 5837 5837 5836 5836 5836 5836 5836 5837 5837 5838 5837 5838 5839 5838 5837 5838 5837 5837 5837 5835 5835 5834 5834 5834 5834 5834 5833 5833 5833 5833 5832 5832 5831 5832 5831 5831 5831 5831 5831 5831 5831 5831 5831 5831 5830 5829 5829 5828 5828 5827 5826 5826 5826 5825 5824 5823 5822 5821 5821 5819 5818 5817 5816 5815 5813 5812 5811 5810 5809 5808 5806 5805 5803 5801 5799 5797 5795 5793 5791 5788 5786 5784 5781 5779 5777
5837 5838 5839 5838 5839 5838 5837 5839 5839 5839 5839 5839 5839 5841 5839 5839 5839 5838 5839 5839 5837 5836 5836 5835 5835 5835 5835 5835 5834 5834 5834 5834 5833 5833 5833 5833 5833 5833 5833 5833 5833 5833 5833 5833 5833 5832 5831 5830 5830 5829 5828 5827 5827 5827 5825 5824 5824 5823 5822 5821 5820 5819 5818 5817 5815 5814 5813 5811 5810 5809 5807 5806 5804 5802 5800 5799 5797 5795 5793 5790 5788 5785 5783 5780 5778 5776
5837 5839 5840 5839 5839 5839 5839 5841 5841 5841 5841 5840 5841 5842 5840 5839 5840 5840 5840 5839 5838 5838 5837 5837 5837 5836 5836 5836 5836 5836 5836 5836 5835 5835 5835 5835 5834 5834 5834 5834 5834 5834 5834 5834 5834 5833 5833 5832 5831 5830 5829 5829 5828 5828 5826 5826 5825 5824 5823 5822 5821 5820 5819 5817 5816 5815 5813 5812 5810 5809 5807 5806 5804 5802 5801 5799 5797 5795 5793 5790 5788 5785 5782 5780 5777 5774
5838 5838 5839 5839 5839 5840 5841 5842 5842 5843 5842 5841 5842 5842 5841 5841 5841 5841 5841 5840 5839 5839 5839 5839 5838 5838 5838 5838 5837 5837 5837 5837 5837 5837 5836 5836 5836 5835 5835 5835 5835 5835 5835 5835 5835 5834 5834 5833 5832 5832 5831 5830 5830 5829 5828 5827 5826 5825 5824 5823 5822 5821 5819 5818 5817 5815 5814 5812 5811 5809 5808 5806 5804 5802 5800 5798 5796 5794 5792 5789 5787 5784 5781 5778 5775 5772
5842 5839 5839 5840 5840 5841 5842 5842 5843 5843 5843 5842 5842 5842 5842 5843 5842 5843 5843 5842 5842 5842 5841 5841 5840 5840 5840 5839 5839 5839 5838 5839 5838 5838 5838 5837 5837 5837 5836 5837 5837 5837 5837 5836 5836 5835 5835 5834 5834 5833 5832 5832 5831 5830 5829 5828 5827 5826 5825 5824 5823 5821 5820 5819 5817 5815 5814 5812 5811 5809 5807 5805 5803 5801 5799 5797 5795 5792 5790 5787 5785 5782 5779 5776 5772 5769
5845 5844 5841 5841 5842 5842 5843 5844 5843 5844 5844 5843 5843 5843 5843 5844 5844 5844 5843 5843 5843 5843 5842 5842 5842 5842 5842 5841 5840 5840 5840 5840 5839 5839 5839 5838 5838 5838 5838 5838 5838 5838 5838 5838 5837 5837 5836 5835 5835 5834 5833 5833 5832 5831 5830 5829 5828 5827 5826 5824 5823 5822 5820 5819 5817 5815 5814 5812 5810 5808 5806 5804 5802 5800 5798 5796 5794 5791 5789 5786 5783 5780 5777 5773 5770 5766
5846 5846 5843 5842 5843 5843 5844 5845 5844 5844 5845 5844 5845 5845 5844 5843 5844 5844 5844 5844 5844 5843 5843 5844 5844 5843 5843 5842 5842 5841 5841 5841 5841 5841 5840 5840 5839 5839 5840 5839 5839 5840 5839 5839 5839 5838 5837 5837 5836 5835 5835 5834 5833 5832 5831 5830 5829 5827 5826 5825 5824 5822 5820 5819 5817 5815 5813 5811 5810 5808 5806 5804 5801 5799 5797 5795 5792 5790 5787 5784 5781 5778 5775 5771 5767 5764
5844 5846 5845 5843 5844 5844 5845 5845 5844 5845 5845 5845 5845 5844 5843 5843 5844 5845 5845 5845 5844 5843 5844 5845 5844 5844 5844 5844 5843 5842 5842 5842 5842 5842 5842 5841 5841 5840 5841 5841 5841 5841 5841 5840 5840 5839 5839 5838 5837 5837 5836 5835 5834 5833 5832 5831 5830 5829 5827 5826 5824 5822 5820 5818 5816 5814 5813 5811 5809 5807 5805 5803 5801 5798 5796 5794 5791 5788 5785 5783 5780 5776 5773 5769 5765 5761
5845 5847 5846 5844 5845 5845 5844 5844 5845 5845 5846 5844 5844 5844 5845 5845 5845 5846 5846 5845 5844 5845 5845 5845 5845 5845 5845 5845 5845 5844 5844 5843 5843 5843 5843 5842 5842 5842 5842 5842 5842 5841 5841 5841 5841 5840 5840 5839 5838 5837 5837 5836 5835 5834 5833 5832 5830 5829 5827 5826 5824 5822 5820 5818 5816 5815 5813 5811 5809 5807 5804 5802 5800 5797 5795 5792 5790 5787 5784 5781 5778 5775 5771 5767 5762 5758
5846 5847 5846 5845 5845 5845 5845 5846 5847 5847 5847 5846 5845 5845 5846 5846 5846 5846 5846 5846 5846 5846 5846 5846 5847 5847 5846 5847 5846 5845 5845 5844 5844 5844 5843 5843 5843 5843 5843 5843 5842 5842 5842 5841 5841 5841 5840 5840 5839 5838 5837 5836 5836 5835 5833 5832 5831 5829 5827 5825 5824 5822 5820 5818 5816 5815 5812 5810 5808 5806 5804 5801 5799 5796 5794 5791 5788 5785 5783 5779 5776 5772 5768 5764 5760 5755
5846 5846 5846 5846 5846 5846 5847 5848 5848 5849 5848 5847 5847 5847 5847 5847 5847 5847 5847 5847 5847 5847 5846 5847 5848 5848 5848 5848 5847 5846 5846 5846 5846 5845 5844 5844 5844 5844 5843 5843 5843 5843 5843 5842 5842 5841 5841 5840 5839 5839 5838 5837 5836 5835 5833 5832 5831 5829 5827 5825 5823 5822 5820 5818 5816 5814 5812 5810 5807 5805 5803 5801 5798 5795 5792 5790 5787 5784 5781 5777 5774 5770 5766 5761 5757 5752
5846 5847 5846 5847 5847 5847 5847 5847 5847 5848 5848 5847 5847 5848 5847 5847 5848 5848 5848 5848 5848 5847 5847 5848 5848 5848 5848 5848 5848 5847 5847 5847 5847 5846 5845 5845 5844 5844 5844 5844 5844 5844 5843 5843 5842 5842 5841 5840 5840 5839 5837 5836 5835 5834 5833 5832 5831 5829 5827 5825 5824 5822 5820 5818 5816 5814 5811 5809 5807 5805 5802 5800 5797 5794 5791 5789 5786 5782 5779 5775 5771 5767 5763 5758 5754 5749
5845 5846 5847 5846 5847 5847 5848 5848 5847 5847 5847 5847 5847 5847 5846 5848 5849 5849 5849 5849 5849 5848 5848 5849 5849 5848 5848 5848 5847 5847 5848 5847 5847 5846 5846 5845 5845 5845 5845 5844 5844 5844 5844 5843 5843 5842 5841 5841 5840 5839 5837 5836 5835 5834 5833 5832 5831 5829 5828 5826 5823 5821 5819 5817 5815 5813 5811 5809 5806 5804 5802 5799 5796 5793 5790 5787 5784 5781 5777 5773 5769 5764 5760 5755 5750 5745
5844 5845 5845 5846 5847 5847 5848 5849 5848 5848 5847 5848 5848 5847 5847 5848 5849 5849 5849 5850 5849 5849 5849 5849 5849 5849 5849 5849 5848 5847 5847 5847 5846 5846 5846 5846 5845 5846 5845 5845 5845 5845 5844 5844 5843 5843 5842 5841 5840 5839 5838 5837 5836 5835 5834 5832 5831 5829 5828 5825 5823 5821 5818 5817 5815 5812 5810 5808 5806 5803 5801 5798 5795 5792 5789 5786 5783 5779 5775 5771 5766 5762 5757 5752 5747 5742
5843 5844 5844 5845 5846 5847 5847 5848 5848 5848 5849 5849 5849 5848 5848 5848 5849 5850 5850 5850 5850 5849 5849 5849 5849 5850 5850 5849 5848 5848 5848 5847 5847 5847 5847 5846 5846 5846 5846 5846 5845 5845 5845 5844 5843 5843 5842 5841 5840 5839 5838 5837 5836 5835 5834 5833 5831 5829 5827 5825 5823 5821 5819 5816 5814 5812 5810 5808 5805 5802 5800 5797 5794 5791 5788 5785 5781 5777 5773 5769 5764 5760 5755 5749 5744 5738
5842 5844 5844 5845 5846 5846 5847 5848 5848 5848 5848 5849 5849 5849 5848 5848 5849 5851 5851 5851 5851 5850 5849 5849 5849 5850 5850 5850 5848 5848 5848 5848 5847 5847 5847 5847 5847 5847 5847 5846 5846 5845 5845 5844 5844 5843 5842 5842 5841 5839 5838 5837 5837 5836 5834 5833 5831 5829 5827 5825 5823 5821 5819 5816 5814 5811 5809 5806 5804 5801 5799 5796 5793 5790 5786 5783 5779 5775 5771 5767 5762 5757 5752 5747 5741 5735
5842 5843 5844 5844 5846 5846 5847 5848 5848 5848 5848 5848 5848 5849 5849 5849 5850 5850 5851 5851 5851 5850 5850 5849 5849 5849 5849 5849 5849 5848 5848 5848 5848 5848 5848 5847 5847 5847 5847 5846 5846 5846 5845 5845 5844 5843 5843 5842 5841 5839 5838 5837 5836 5835 5834 5832 5831 5828 5826 5824 5822 5820 5818 5816 5813 5810 5808 5805 5803 5800 5798 5795 5792 5788 5785 5781 5778 5774 5770 5765 5760 5755 5750 5744 5738 5732
5841 5842 5843 5844 5845 5846 5847 5848 5848 5848 5848 5848 5848 5849 5850 5850 5850 5850 5850 5850 5850 5850 5850 5849 5849 5848 5848 5849 5850 5848 5848 5848 5848 5848 5847 5847 5847 5847 5847 5846 5846 5846 5845 5845 5844 5843 5842 5841 5841 5839 5838 5837 5836 5835 5833 5831 5830 5828 5826 5823 5821 5819 5817 5815 5812 5809 5807 5804 5802 5799 5797 5794 5790 5787 5783 5780 5777 5773 5768 5763 5758 5753 5748 5742 5736 5729
5840 5841 5842 5843 5844 5845 5847 5847 5847 5848 5849 5848 5849 5850 5850 5849 5850 5850 5850 5850 5850 5850 5850 5849 5849 5849 5847 5848 5849 5849 5848 5848 5848 5848 5847 5847 5847 5847 5847 5846 5846 5846 5845 5845 5844 5843 5842 5841 5840 5839 5838 5837 5836 5834 5832 5830 5828 5827 5825 5823 5821 5818 5816 5813 5810 5808 5806 5803 5801 5798 5796 5792 5789 5786 5783 5779 5775 5771 5767 5762 5757 5751 5746 5740 5733 5727
5839 5840 5841 5842 5842 5843 5844 5845 5846 5847 5848 5849 5849 5850 5849 5849 5849 5849 5849 5850 5850 5850 5850 5848 5848 5848 5846 5846 5847 5848 5847 5847 5848 5848 5846 5846 5847 5846 5846 5846 5845 5845 5845 5844 5844 5843 5842 5841 5840 5839 5838 5836 5835 5833 5831 5829 5828 5826 5824 5822 5820 5817 5814 5811 5809 5807 5805 5802 5800 5797 5794 5791 5788 5785 5782 5778 5774 5770 5765 5760 5755 5750 5744 5738 5731 5724
5839 5839 5840 5840 5841 5842 5842 5843 5845 5846 5847 5848 5849 5849 5849 5849 5849 5849 5849 5850 5849 5849 5849 5847 5847 5847 5846 5847 5847 5847 5847 5846 5847 5847 5846 5846 5846 5846 5845 5845 5845 5845 5845 5844 5843 5842 5842 5841 5840 5839 5837 5836 5834 5833 5831 5829 5827 5825 5823 5821 5819 5816 5813 5810 5808 5806 5804 5801 5799 5796 5793 5790 5788 5784 5781 5777 5773 5768 5764 5759 5754 5748 5742 5736 5729 5722
5838 5838 5838 5839 5839 5841 5842 5841 5843 5844 5845 5847 5848 5848 5848 5849 5848 5848 5848 5849 5848 5848 5848 5848 5847 5847 5846 5847 5847 5846 5846 5845 5845 5846 5846 5845 5845 5845 5845 5845 5845 5845 5844 5844 5843 5842 5841 5841 5840 5839 5837 5836 5834 5832 5831 5829 5827 5825 5823 5820 5817 5815 5812 5809 5807 5805 5803 5800 5798 5795 5793 5790 5787 5783 5779 5775 5771 5767 5762 5757 5752 5746 5740 5734 5727 5720
5837 5838 5838 5838 5839 5841 5842 5841 5841 5842 5843 5845 5846 5846 5847 5848 5847 5847 5848 5848 5848 5848 5848 5847 5847 5847 5846 5846 5846 5845 5845 5845 5845 5845 5845 5845 5845 5845 5845 5845 5844 5844 5844 5843 5842 5842 5841 5840 5839 5838 5837 5835 5834 5832 5830 5828 5826 5824 5822 5819 5816 5813 5811 5809 5806 5804 5802 5800 5797 5795 5792 5789 5785 5782 5778 5774 5770 5766 5761 5756 5750 5745 5739 5732 5725 5718
5836 5837 5837 5837 5838 5839 5840 5841 5842 5842 5843 5844 5845 5845 5846 5846 5846 5846 5847 5847 5847 5847 5848 5847 5846 5847 5846 5845 5845 5845 5844 5844 5845 5845 5844 5844 5844 5844 5844 5844 5844 5843 5843 5842 5842 5841 5840 5840 5839 5838 5836 5835 5833 5831 5829 5827 5825 5823 5821 5818 5815 5812 5810 5808 5806 5804 5801 5799 5796 5794 5791 5787 5784 5780 5777 5773 5768 5764 5759 5754 5749 5743 5737 5731 5724 5717
5835 5835 5836 5836 5837 5838 5839 5840 5841 5842 5842 5844 5844 5844 5844 5845 5845 5846 5846 5846 5846 5847 5847 5847 5846 5846 5846 5844 5844 5844 5844 5843 5844 5844 5844 5844 5844 5844 5843 5843 5843 5843 5842 5842 5841 5841 5840 5839 5838 5837 5836 5834 5832 5830 5828 5826 5824 5822 5820 5817 5814 5812 5809 5807 5805 5803 5801 5798 5796 5793 5789 5786 5783 5779 5775 5771 5767 5762 5757 5753 5747 5742 5736 5730 5723 5715
5834 5834 5835 5836 5837 5837 5838 5839 5840 5841 5842 5842 5843 5843 5844 5843 5843 5845 5845 5845 5845 5846 5846 5846 5846 5845 5845 5844 5844 5844 5844 5843 5843 5843 5843 5843 5844 5843 5842 5842 5842 5842 5842 5841 5841 5840 5839 5838 5838 5837 5835 5833 5832 5830 5828 5826 5824 5821 5819 5816 5813 5811 5809 5807 5805 5802 5800 5797 5794 5791 5788 5785 5782 5778 5774 5770 5766 5761 5756 5751 5746 5741 5735 5729 5722 5715
5832 5833 5835 5836 5837 5837 5838 5838 5839 5840 5841 5841 5842 5843 5844 5843 5843 5843 5844 5844 5845 5845 5845 5845 5845 5844 5844 5844 5844 5845 5844 5842 5842 5842 5841 5842 5843 5843 5842 5841 5842 5841 5841 5841 5840 5840 5839 5838 5837 5836 5834 5833 5831 5830 5827 5825 5823 5820 5818 5815 5813 5811 5809 5807 5804 5801 5799 5796 5793 5790 5787 5784 5781 5777 5773 5769 5765 5760 5755 5750 5745 5740 5734 5728 5722 5715
5831 5833 5834 5836 5837 5837 5837 5838 5838 5839 5840 5841 5842 5843 5843 5842 5842 5842 5843 5844 5844 5844 5844 5844 5844 5844 5843 5843 5843 5843 5842 5841 5841 5841 5841 5841 5841 5841 5841 5841 5841 5841 5841 5840 5840 5839 5838 5838 5837 5835 5834 5833 5831 5829 5826 5824 5822 5819 5817 5815 5812 5810 5808 5806 5803 5801 5798 5795 5792 5789 5786 5783 5780 5776 5772 5768 5764 5759 5754 5749 5745 5739 5734 5728 5722 5715
5830 5831 5833 5834 5835 5836 5836 5837 5837 5838 5839 5840 5840 5841 5841 5841 5841 5841 5842 5843 5843 5843 5843 5843 5843 5843 5843 5842 5842 5841 5841 5841 5841 5841 5840 5840 5840 5840 5840 5840 5840 5840 5840 5840 5839 5839 5838 5837 5836 5835 5834 5832 5830 5828 5826 5823 5821 5819 5817 5814 5812 5810 5808 5805 5802 5800 5797 5794 5791 5788 5785 5782 5779 5775 5771 5767 5763 5759 5754 5749 5744 5739 5733 5728 5722 5716
5828 5830 5832 5833 5833 5834 5835 5835 5836 5836 5837 5838 5839 5840 5840 5840 5840 5840 5841 5841 5842 5842 5841 5841 5842 5842 5842 5841 5841 5841 5840 5840 5840 5840 5840 5839 5839 5839 5839 5839 5839 5839 5839 5839 5838 5838 5837 5836 5835 5834 5833 5832 5830 5827 5825 5822 5821 5819 5816 5814 5812 5809 5807 5804 5801 5799 5796 5793 5790 5787 5784 5781 5778 5774 5770 5766 5762 5758 5754 5749 5744 5739 5734 5728 5723 5716
5828 5829 5831 5832 5832 5832 5832 5833 5835 5836 5836 5837 5838 5838 5838 5838 5839 5839 5839 5840 5840 5841 5840 5840 5841 5841 5840 5840 5840 5840 5839 5839 5839 5839 5839 5838 5839 5838 5839 5839 5839 5839 5839 5838 5838 5837 5837 5836 5835 5834 5832 5831 5829 5826 5824 5822 5820 5818 5816 5814 5811 5809 5806 5803 5801 5798 5795 5792 5789 5786 5783 5780 5777 5773 5769 5765 5762 5758 5753 5749 5744 5739 5734 5729 5724 5718
5827 5828 5829 5830 5831 5831 5830 5832 5834 5835 5835 5836 5836 5837 5837 5837 5838 5838 5838 5838 5839 5839 5839 5838 5839 5839 5838 5838 5838 5838 5838 5838 5838 5838 5838 5838 5838 5838 5838 5838 5838 5838 5838 5838 5837 5837 5836 5835 5834 5833 5831 5830 5828 5826 5824 5822 5820 5818 5816 5813 5811 5808 5805 5802 5800 5797 5794 5791 5788 5785 5782 5779 5776 5772 5769 5765 5761 5757 5753 5749 5744 5740 5735 5730 5725 5719
5826 5827 5828 5829 5830 5829 5829 5831 5833 5833 5834 5835 5835 5835 5835 5836 5836 5837 5837 5837 5837 5837 5837 5837 5837 5837 5837 5837 5837 5837 5836 5836 5837 5837 5837 5837 5837 5837 5837 5838 5838 5838 5838 5837 5837 5836 5835 5834 5833 5832 5830 5829 5827 5825 5823 5822 5820 5818 5815 5813 5810 5807 5804 5802 5799 5796 5793 5790 5787 5784 5781 5778 5775 5772 5768 5764 5760 5757 5753 5749 5745 5740 5736 5731 5725 5720
5824 5826 5827 5828 5828 5828 5829 5830 5831 5831 5832 5833 5834 5834 5834 5834 5835 5835 5836 5835 5836 5836 5836 5836 5836 5836 5836 5836 5836 5836 5836 5836 5836 5836 5836 5836 5837 5837 5837 5837 5837 5837 5837 5837 5836 5835 5834 5833 5832 5831 5829 5828 5826 5824 5823 5821 5819 5817 5815 5812 5809 5806 5803 5801 5798 5795 5792 5789 5786 5783 5780 5777 5774 5771 5768 5764 5760 5757 5753 5749 5745 5741 5736 5731 5726 5721
5822 5824 5825 5826 5826 5827 5828 5828 5829 5830 5830 5831 5833 5833 5833 5833 5833 5834 5834 5834 5834 5834 5834 5834 5834 5834 5834 5835 5835 5835 5835 5835 5836 5836 5836 5836 5836 5836 5837 5836 5837 5837 5836 5836 5835 5834 5833 5832 5831 5830 5828 5827 5825 5824 5822 5821 5818 5816 5814 5811 5808 5805 5803 5800 5797 5794 5791 5788 5785 5783 5780 5777 5773 5770 5767 5763 5760 5756 5753 5749 5745 5741 5737 5732 5728 5723
5820 5821 5822 5824 5825 5826 5826 5827 5828 5828 5828 5830 5832 5832 5832 5832 5832 5832 5832 5832 5833 5833 5832 5833 5833 5833 5833 5834 5834 5834 5834 5835 5835 5835 5835 5836 5836 5836 5836 5836 5836 5836 5835 5835 5834 5833 5832 5831 5830 5829 5827 5826 5824 5823 5822 5820 5818 5815 5813 5810 5807 5804 5802 5799 5796 5793 5790 5788 5785 5782 5779 5776 5773 5769 5766 5762 5759 5756 5752 5748 5745 5741 5737 5733 5728 5723
5818 5819 5820 5822 5823 5824 5825 5826 5827 5826 5827 5828 5830 5830 5830 5831 5831 5830 5830 5830 5831 5831 5831 5831 5831 5832 5832 5832 5833 5833 5833 5834 5835 5834 5834 5835 5835 5835 5835 5835 5835 5835 5835 5834 5833 5832 5831 5830 5829 5828 5826 5825 5824 5822 5821 5819 5817 5814 5812 5809 5806 5804 5801 5798 5795 5792 5790 5787 5784 5781 5778 5775 5772 5768 5765 5762 5758 5755 5751 5747 5744 5740 5736 5732 5728 5724
5816 5817 5818 5820 5821 5822 5823 5824 5825 5824 5824 5826 5828 5828 5828 5829 5829 5828 5829 5829 5830 5830 5830 5830 5830 5830 5831 5831 5831 5832 5832 5833 5833 5833 5833 5834 5834 5834 5835 5835 5834 5834 5834 5833 5832 5831 5830 5829 5828 5827 5825 5824 5823 5821 5820 5818 5815 5813 5811 5808 5805 5802 5800 5797 5794 5792 5789 5786 5783 5780 5777 5774 5771 5767 5764 5761 5757 5754 5750 5747 5743 5739 5735 5731 5727 5723
5814 5815 5817 5818 5820 5821 5821 5822 5823 5822 5822 5824 5826 5826 5826 5826 5826 5827 5828 5828 5828 5828 5829 5829 5829 5829 5829 5830 5830 5831 5831 5831 5832 5832 5833 5833 5833 5833 5833 5833 5833 5833 5832 5832 5831 5830 5829 5828 5827 5825 5824 5823 5822 5820 5818 5816 5814 5812 5809 5807 5804 5801 5799 5796 5793 5790 5788 5785 5782 5779 5776 5773 5770 5767 5763 5760 5757 5753 5749 5746 5742 5738 5734 5731 5727 5723
5812 5813 5815 5816 5818 5819 5819 5820 5820 5820 5820 5822 5824 5824 5825 5825 5825 5826 5826 5826 5827 5827 5827 5827 5827 5828 5828 5829 5830 5830 5830 5830 5830 5831 5831 5832 5832 5832 5832 5832 5832 5831 5831 5830 5829 5829 5828 5827 5825 5824 5823 5822 5820 5819 5817 5815 5813 5811 5808 5805 5803 5800 5797 5795 5792 5789 5787 5784 5781 5778 5775 5772 5769 5766 5762 5759 5756 5752 5749 5745 5741 5738 5734 5730 5727 5723
5809 5810 5813 5814 5815 5817 5817 5817 5817 5818 5819 5821 5822 5822 5822 5823 5824 5824 5824 5825 5825 5826 5826 5827 5826 5827 5827 5828 5829 5829 5829 5830 5830 5830 5830 5830 5831 5831 5831 5831 5830 5830 5829 5829 5828 5827 5826 5825 5824 5823 5822 5820 5819 5817 5815 5813 5811 5809 5807 5804 5801 5799 5796 5794 5791 5788 5785 5782 5779 5776 5774 5771 5768 5764 5761 5758 5755 5751 5748 5744 5741 5738 5734 5730 5727 5723
5807 5809 5811 5812 5813 5814 5814 5814 5815 5817 5819 5819 5819 5820 5821 5821 5822 5822 5822 5823 5824 5824 5824 5825 5825 5825 5826 5827 5828 5828 5828 5828 5829 5829 5829 5829 5829 5829 5829 5829 5829 5828 5828 5827 5826 5825 5824 5823 5822 5821 5820 5819 5817 5815 5814 5812 5810 5807 5805 5802 5800 5797 5795 5792 5790 5787 5784 5781 5778 5775 5772 5769 5766 5763 5760 5757 5754 5750 5747 5744 5740 5737 5734 5731 5727 5724
5805 5807 5809 5810 5810 5811 5812 5812 5813 5815 5816 5817 5817 5818 5819 5819 5819 5820 5821 5821 5821 5822 5822 5823 5823 5824 5825 5825 5826 5826 5826 5827 5827 5827 5827 5827 5828 5827 5827 5827 5827 5826 5826 5825 5824 5823 5822 5821 5820 5819 5818 5817 5815 5813 5812 5810 5808 5805 5803 5801 5798 5796 5793 5790 5788 5786 5783 5780 5777 5774 5770 5768 5765 5762 5759 5756 5753 5750 5746 5743 5740 5737 5733 5730 5727 5724
5801 5804 5807 5807 5807 5809 5810 5810 5810 5811 5813 5814 5815 5816 5816 5817 5816 5817 5818 5819 5819 5820 5820 5821 5821 5822 5823 5823 5824 5824 5824 5825 5825 5825 5825 5826 5826 5825 5825 5825 5825 5824 5824 5823 5822 5821 5820 5819 5818 5817 5816 5815 5813 5811 5809 5807 5806 5803 5801 5799 5797 5794 5792 5789 5786 5784 5781 5778 5775 5773 5770 5767 5764 5761 5758 5755 5752 5749 5746 5743 5739 5736 5733 5730 5726 5723
5797 5801 5804 5803 5804 5807 5807 5806 5807 5809 5810 5811 5812 5813 5814 5815 5814 5813 5814 5815 5816 5817 5817 5818 5819 5819 5820 5821 5821 5822 5822 5823 5823 5823 5823 5823 5823 5823 5823 5823 5822 5822 5821 5821 5820 5819 5818 5817 5816 5815 5814 5812 5811 5809 5807 5805 5803 5801 5799 5797 5795 5792 5790 5787 5785 5782 5779 5776 5774 5771 5768 5765 5762 5759 5756 5754 5751 5748 5745 5742 5739 5736 5733 5729 5726 5723
5795 5798 5799 5799 5801 5804 5803 5802 5803 5805 5807 5808 5809 5810 5812 5813 5813 5813 5813 5813 5814 5814 5815 5816 5816 5817 5818 5819 5819 5820 5820 5821 5821 5821 5821 5821 5821 5821 5821 5820 5820 5820 5819 5818 5817 5817 5816 5815 5814 5813 5811 5810 5808 5806 5804 5803 5801 5799 5797 5795 5793 5790 5788 5786 5783 5781 5778 5775 5772 5769 5766 5763 5761 5758 5755 5752 5749 5747 5744 5741 5738 5734 5732 5729 5725 5722
5793 5794 5795 5797 5799 5800 5799 5799 5800 5803 5805 5806 5807 5808 5809 5811 5811 5811 5812 5813 5813 5813 5813 5814 5814 5815 5816 5816 5817 5817 5818 5818 5818 5819 5819 5819 5819 5818 5818 5818 5817 5817 5817 5816 5815 5814 5813 5813 5811 5810 5809 5807 5806 5804 5802 5800 5798 5796 5794 5792 5790 5788 5786 5783 5781 5779 5776 5774 5771 5768 5765 5762 5759 5756 5753 5750 5747 5744 5741 5739 5736 5733 5730 5727 5724 5720
5790 5791 5793 5795 5796 5796 5797 5798 5799 5800 5802 5803 5804 5805 5806 5807 5807 5808 5808 5809 5811 5812 5812 5812 5812 5812 5813 5814 5814 5815 5815 5816 5816 5816 5816 5816 5816 5816 5815 5815 5815 5814 5814 5813 5813 5812 5811 5810 5809 5807 5806 5804 5803 5801 5799 5797 5795 5793 5791 5789 5787 5785 5783 5781 5779 5777 5774 5772 5769 5766 5763 5760 5758 5755 5752 5749 5746 5743 5740 5737 5734 5731 5728 5725 5722 5719